Weather reports worldwide

Advertisment
Benavente, Spain (8056): temperature & dewpoint: 14.01.2021 13:00:00 - 20.01.2021 13:00:00 (CET)Benavente, Spain (8056): wind speed & gusts: 14.01.2021 13:00:00 - 20.01.2021 13:00:00 (CET)Benavente, Spain (8056): wind direction: 14.01.2021 13:00:00 - 20.01.2021 13:00:00 (CET)Benavente, Spain (8056): reduced air pressure: 14.01.2021 13:00:00 - 20.01.2021 13:00:00 (CET)Benavente, Spain (8056): visibility: 14.01.2021 13:00:00 - 20.01.2021 13:00:00 (CET)Benavente, Spain (8056): sunshine duration: 14.01.2021 13:00:00 - 20.01.2021 13:00:00 (CET)Benavente, Spain (8056): precipitation: 14.01.2021 13:00:00 - 20.01.2021 13:00:00 (CET)
Date & Time tt [°C] td [°C] ff [km/h] ff [kn] fx [km/h] fx [kn] dd ppp [hPa] vv [km] sd [min] rr [mm]
20.01.2021 13:00:00 8,8 5,3 16 9 42 23 SSW 1002,9 20 0 -
20.01.2021 12:00:00 6,6 4,5 16 9 38 20 S 1004,8 11 0 0,0
20.01.2021 11:00:00 6,1 3,8 19 10 38 20 S 1005,3 20 0 0,0
20.01.2021 10:00:00 6,1 3,2 20 11 44 24 S 1005,4 20 0 0,0
20.01.2021 09:00:00 5,4 3,9 14 7 31 17 S 1006,4 20 0 0,2
20.01.2021 08:00:00 4,8 3,6 16 8 31 17 S 1007,1 14 0 0,4
20.01.2021 07:00:00 4,4 3,2 10 5 29 16 SSW 1007,8 14 0 -
20.01.2021 06:00:00 3,8 2,7 11 6 30 16 S 1008,7 15 0 0,4
20.01.2021 05:00:00 3,1 1,9 11 6 31 17 S 1010,3 12 0 0,0
20.01.2021 04:00:00 3,0 1,9 8 5 22 12 S 1012,2 12 0 0,0
20.01.2021 03:00:00 2,2 1,3 5 3 16 9 S 1013,6 10 0 0,0
20.01.2021 02:00:00 2,9 2,1 4 2 14 8 SE 1014,5 14 0 0,0
20.01.2021 01:00:00 2,3 1,5 5 3 13 7 S 1016,0 14 0 -
20.01.2021 00:00:00 1,8 1,1 6 3 14 8 S 1017,0 11 0 0,0
19.01.2021 23:00:00 0,8 0,2 6 3 19 10 SSW 1018,3 9 0 0,0
19.01.2021 22:00:00 -0,5 -1,0 2 1 6 4 SE 1019,7 3,5 0 0,0
19.01.2021 21:00:00 -0,1 -0,7 4 2 8 5 SW 1020,4 3,5 0 0,0
19.01.2021 20:00:00 0,0 -0,5 5 3 8 4 SW 1020,7 3,6 0 0,0
19.01.2021 19:00:00 0,2 -0,5 4 2 11 6 S 1021,1 5 0 -
19.01.2021 18:00:00 0,6 0,0 5 3 18 10 S 1021,6 9 0 0,0
19.01.2021 17:00:00 0,9 0,2 7 4 13 7 S 1022,1 7 0 0,0
19.01.2021 16:00:00 0,1 -0,5 4 2 11 6 ESE 1022,8 6 0 0,0
19.01.2021 15:00:00 -0,2 -0,7 4 2 16 9 SE 1023,7 3,4 0 0,0
19.01.2021 14:00:00 -0,6 -1,2 2 1 8 4 E 1025,1 1,8 0 0,0
19.01.2021 13:00:00 -1,1 -1,7 1 1 13 7 ENE 1026,5 0,8 0 -
19.01.2021 12:00:00 -1,7 -2,5 2 1 13 7 N 1027,5 0,2 0 0,0
19.01.2021 11:00:00 -1,9 -2,5 3 2 12 7 SE 1027,7 0,2 0 0,0
19.01.2021 10:00:00 -2,2 -3,0 2 1 16 8 NE 1027,8 0,2 0 0,0
19.01.2021 09:00:00 -2,4 -3,0 2 1 6 3 E 1028,0 0,1 0 0,0
19.01.2021 08:00:00 -2,3 -3,0 3 2 8 4 ENE 1028,3 0,1 0 0,0
19.01.2021 07:00:00 -2,2 -3,0 4 2 6 3 ENE 1028,4 0,1 0 -
19.01.2021 06:00:00 -2,2 -3,0 4 2 7 4 NE 1028,6 0,2 0 0,0
19.01.2021 05:00:00 -2,1 -2,7 3 2 18 10 ENE 1028,8 0,2 0 0,0
19.01.2021 04:00:00 -1,9 -2,5 4 2 7 4 NNE 1029,4 0,2 0 0,0
19.01.2021 03:00:00 -1,8 -2,5 3 1 6 4 NNE 1029,5 0,1 0 0,0
19.01.2021 02:00:00 -2,1 -2,7 2 1 14 8 NNE 1030,3 0,3 0 0,0
19.01.2021 01:00:00 -2,5 -3,3 4 2 16 9 NNW 1030,8 0,4 0 -
19.01.2021 00:00:00 -2,6 -3,3 0 0 6 3 N 1031,0 5 0 0,0
18.01.2021 23:00:00 -1,6 -2,2 3 2 16 9 ENE 1030,7 3,4 0 0,0
18.01.2021 22:00:00 -1,9 -2,5 4 2 16 9 N 1030,9 3,5 0 0,0
18.01.2021 21:00:00 -0,6 -1,2 2 1 4 2 N 1030,3 3,2 0 0,0
18.01.2021 20:00:00 -0,4 -1,2 2 1 4 2 N 1030,3 3,6 0 0,0
18.01.2021 19:00:00 0,8 0,0 2 1 4 2 NNW 1029,6 7 0 -
18.01.2021 18:00:00 4,3 3,0 1 1 4 2 ENE 1028,1 15 45 0,0
18.01.2021 17:00:00 4,7 3,6 2 1 16 9 ESE 1028,1 18 60 0,0
18.01.2021 16:00:00 3,0 2,3 3 2 10 6 N 1029,1 16 60 0,0
18.01.2021 15:00:00 1,9 1,3 5 3 12 7 NNE 1030,0 10 23 0,0
18.01.2021 14:00:00 0,0 -0,7 4 2 18 10 NNE 1031,4 2,7 0 0,0
18.01.2021 13:00:00 -0,9 -1,7 3 2 14 7 N 1032,9 3,3 0 -
18.01.2021 12:00:00 -2,1 -2,7 4 2 16 8 NNE 1034,1 1,3 0 0,0
18.01.2021 11:00:00 -3,4 -4,2 5 3 10 5 N 1034,5 0,6 0 0,0
18.01.2021 10:00:00 -4,5 -5,4 6 3 22 12 NNE 1034,3 1,5 0 0,0
18.01.2021 09:00:00 -4,7 -5,7 4 2 20 11 N 1034,2 2,3 0 0,0
18.01.2021 08:00:00 -5,3 -6,4 3 2 13 7 NNW 1034,5 12 0 0,0
18.01.2021 07:00:00 -4,9 -5,7 0 0 7 4 N 1034,0 11 0 -
18.01.2021 06:00:00 -5,1 -6,0 3 2 5 3 N 1034,1 12 0 0,0
18.01.2021 05:00:00 -4,6 -5,7 3 2 14 7 N 1034,0 10 0 0,0
18.01.2021 04:00:00 -4,3 -5,1 1 1 16 9 W 1034,2 12 0 0,0
18.01.2021 03:00:00 -4,4 -5,1 3 2 16 9 N 1034,5 10 0 0,0
18.01.2021 02:00:00 -4,3 -5,1 2 1 14 8 NE 1034,5 0,3 0 0,0
18.01.2021 01:00:00 -3,7 -4,5 2 1 14 8 ENE 1034,7 7 0 -
18.01.2021 00:00:00 -3,3 -4,2 1 1 14 8 NNW 1034,8 0,3 0 0,0
17.01.2021 23:00:00 -2,9 -3,6 1 1 17 9 N 1034,6 0,8 0 0,0
17.01.2021 22:00:00 -2,8 -3,6 2 1 6 3 WSW 1034,5 0,2 0 0,0
17.01.2021 21:00:00 -2,5 -3,3 0 0 6 3 N 1034,7 0,2 0 0,0
17.01.2021 20:00:00 -2,2 -2,7 0 0 8 5 N 1034,5 0,2 0 0,0
17.01.2021 19:00:00 -1,5 -2,2 4 2 10 5 ESE 1034,2 0,2 0 -
17.01.2021 18:00:00 -0,7 -1,4 4 2 13 7 S 1033,6 9 2 0,0
17.01.2021 17:00:00 -0,2 -1,0 6 3 10 6 SSW 1033,1 15 41 0,0
17.01.2021 16:00:00 -0,4 -1,2 4 2 9 5 S 1033,3 17 21 0,0
17.01.2021 15:00:00 -1,4 -2,2 3 1 7 4 SE 1034,1 4,8 0 0,0
17.01.2021 14:00:00 -2,0 -2,7 3 1 8 4 S 1035,0 4,7 0 0,0
17.01.2021 13:00:00 -3,0 -3,9 1 1 13 7 WNW 1036,4 1,7 0 -
17.01.2021 12:00:00 -3,7 -4,5 2 1 10 5 NNE 1037,5 0,9 0 0,0
17.01.2021 11:00:00 -3,9 -4,8 3 2 14 8 ENE 1037,3 0,6 0 0,0
17.01.2021 10:00:00 -4,5 -5,4 2 1 8 4 WSW 1036,7 0,7 0 0,0
17.01.2021 09:00:00 -4,3 -5,1 3 2 11 6 S 1036,1 0,5 0 0,0
17.01.2021 08:00:00 -4,3 -5,1 3 1 16 9 WNW 1035,9 0,6 0 0,0
17.01.2021 07:00:00 -4,5 -5,4 2 1 12 7 E 1035,9 0,7 0 -
17.01.2021 06:00:00 -4,0 -4,8 3 2 16 9 N 1035,8 0,5 0 0,0
17.01.2021 05:00:00 -4,0 -4,8 2 1 10 5 E 1035,8 0,4 0 0,0
17.01.2021 04:00:00 -3,6 -4,5 2 1 12 6 NNE 1035,9 0,3 0 0,0
17.01.2021 03:00:00 -3,7 -4,5 3 1 10 5 S 1035,8 0,2 0 0,0
17.01.2021 02:00:00 -3,5 -4,5 3 2 9 5 NE 1036,2 0,3 0 0,0
17.01.2021 01:00:00 -3,2 -4,2 1 1 14 8 E 1036,2 0,2 0 -
17.01.2021 00:00:00 -3,2 -3,9 3 2 16 9 E 1036,5 0,3 0 0,0
16.01.2021 23:00:00 -2,9 -3,6 3 2 13 7 ESE 1036,3 0,2 0 0,0
16.01.2021 22:00:00 -2,8 -3,6 3 2 9 5 N 1036,3 0,3 0 0,0
16.01.2021 21:00:00 -2,7 -3,3 1 1 8 5 W 1036,0 0,3 0 0,0
16.01.2021 20:00:00 -2,5 -3,3 2 1 7 4 E 1035,5 0,2 0 0,0
16.01.2021 19:00:00 -2,0 -2,7 3 2 8 5 S 1035,0 0,3 0 -
16.01.2021 18:00:00 -1,5 -2,2 4 2 7 4 E 1034,5 0,4 0 0,0
16.01.2021 17:00:00 -1,2 -2,0 2 1 11 6 SSE 1034,0 0,6 0 0,0
16.01.2021 16:00:00 -1,5 -2,2 4 2 10 6 SSW - - 0 0,0
16.01.2021 15:00:00 -1,7 -2,5 4 2 13 7 S 1034,5 1,7 0 0,0
16.01.2021 14:00:00 -2,3 -3,0 5 3 10 5 SSW 1035,3 0,6 0 0,0
16.01.2021 13:00:00 -2,6 -3,6 3 1 13 7 S 1036,2 0,4 0 -
16.01.2021 12:00:00 -3,5 -4,5 3 1 7 4 E 1036,9 0,3 0 0,0
16.01.2021 11:00:00 -4,0 -4,8 3 2 8 4 N 1036,8 0,3 0 0,0
16.01.2021 10:00:00 -4,5 -5,4 1 1 13 7 S 1036,4 0,2 0 0,0
16.01.2021 09:00:00 -4,6 -5,4 3 2 7 4 ESE 1036,2 0,3 0 0,0
16.01.2021 08:00:00 -4,5 -5,4 3 2 8 5 SE 1035,6 0,4 0 0,0
16.01.2021 07:00:00 -4,8 -5,7 2 1 13 7 SSE 1035,4 0,2 0 -
16.01.2021 06:00:00 -4,4 -5,1 3 2 7 4 S 1035,0 0,2 0 0,0
16.01.2021 05:00:00 -4,2 -5,1 3 2 13 7 SW 1035,0 0,1 0 0,0
16.01.2021 04:00:00 -4,4 -5,1 3 2 6 3 NE 1035,3 0,2 0 0,0
16.01.2021 03:00:00 -4,3 -5,1 1 1 6 3 NE 1035,3 0,2 0 0,0
16.01.2021 02:00:00 -4,2 -5,1 2 1 14 7 NE 1035,4 0,2 0 0,0
16.01.2021 01:00:00 -3,7 -4,5 3 2 16 9 WNW 1035,6 0,2 0 -
16.01.2021 00:00:00 -3,4 -4,2 2 1 16 9 NNE 1035,7 0,3 0 0,0
15.01.2021 23:00:00 -3,4 -4,2 5 3 13 7 NNW 1035,6 0,3 0 0,0
15.01.2021 22:00:00 -2,9 -3,6 2 1 6 3 NNW 1035,3 0,2 0 0,0
15.01.2021 21:00:00 -3,0 -3,6 0 0 8 4 N 1035,4 0,2 0 0,0
15.01.2021 20:00:00 -2,7 -3,3 1 1 8 4 NW 1035,3 0,1 0 0,0
15.01.2021 19:00:00 -2,5 -3,3 3 2 6 3 SSW 1034,6 0,2 0 -
15.01.2021 18:00:00 -2,3 -3,0 3 1 7 4 NNE 1034,3 0,2 0 0,0
15.01.2021 17:00:00 -2,2 -3,0 1 1 6 4 ENE 1034,4 0,2 0 0,0
15.01.2021 16:00:00 -2,3 -3,0 3 1 14 8 E 1034,3 0,5 0 0,0
15.01.2021 15:00:00 -2,7 -3,6 3 2 18 10 N 1034,8 0,7 0 0,0
15.01.2021 14:00:00 -3,2 -4,2 5 3 10 6 ENE 1035,5 0,4 0 0,0
15.01.2021 13:00:00 -3,8 -4,8 3 2 15 8 NNE 1036,5 0,5 0 -
15.01.2021 12:00:00 -4,0 -4,8 6 3 13 7 NE 1037,4 0,5 0 0,0
15.01.2021 11:00:00 -4,6 -5,7 4 2 16 8 NNE 1037,2 0,4 0 0,0
15.01.2021 10:00:00 -4,6 -5,4 4 2 9 5 N 1036,8 0,3 0 0,0
15.01.2021 09:00:00 -4,8 -5,7 3 1 7 4 N 1036,1 0,2 0 0,0
15.01.2021 08:00:00 -4,7 -5,4 2 1 16 8 SSE 1035,9 0,2 0 0,0
15.01.2021 07:00:00 -5,0 -6,0 2 1 7 4 NNW 1035,7 0,2 0 -
15.01.2021 06:00:00 -4,4 -5,1 3 1 13 7 W 1035,4 0,2 0 0,0
15.01.2021 05:00:00 -4,1 -5,1 3 2 8 4 NE 1035,5 0,2 0 0,0
15.01.2021 04:00:00 -3,9 -4,8 2 1 5 3 SSE 1035,3 0,2 0 0,0
15.01.2021 03:00:00 -4,1 -5,1 3 2 6 3 NW 1035,1 0,2 0 0,0
15.01.2021 02:00:00 -3,9 -4,8 3 2 17 9 NNE 1035,2 0,2 0 0,0
15.01.2021 01:00:00 -3,5 -4,5 3 1 7 4 SSE 1035,3 0,2 0 -
15.01.2021 00:00:00 -3,4 -4,2 2 1 6 3 N 1035,1 0,2 0 0,0
14.01.2021 23:00:00 -3,3 -3,9 2 1 8 4 ENE 1035,0 0,3 0 0,0
14.01.2021 22:00:00 -2,9 -3,6 3 2 8 5 SSW 1034,4 0,2 0 0,0
14.01.2021 21:00:00 -2,8 -3,6 2 1 8 4 ESE 1034,3 0,2 0 0,0
14.01.2021 20:00:00 -2,4 -3,0 3 1 9 5 SW 1034,1 0,3 0 0,0
14.01.2021 19:00:00 -2,0 -2,7 6 3 13 7 ESE 1034,0 0,4 0 -
14.01.2021 18:00:00 -1,4 -2,2 3 2 13 7 S 1033,3 0,5 0 0,0
14.01.2021 17:00:00 -1,3 -2,2 5 3 16 9 S 1033,0 0,5 0 0,0
14.01.2021 16:00:00 -1,4 -2,2 4 2 10 5 S - - 0 0,0
14.01.2021 15:00:00 -2,1 -3,0 3 1 8 5 S 1033,0 0,5 0 0,0
14.01.2021 14:00:00 -2,5 -3,3 4 2 9 5 SSW 1033,6 0,5 0 0,0
14.01.2021 13:00:00 -3,4 -4,2 3 1 14 8 SE 1034,9 0,3 0 -

tt = temperature
td = dewpoint
ff = wind speed
fx = gusts
dd = wind direction
ppp = reduced air pressure
vv = visibility
sd = sunshine duration
rr = precipitation

Next stations